Simultaneous Nadir Overpasses (SNOs) Predictions

Prediction of SNOs between AQUA and GOES-15 Satellite Orbit:

Table of predicted SNOs for the next 14.0 days since TLE Epoch: 8/5/2023
Index Date Time (AQUA) AQUA Lat,Lon GOES-15 Lat,Lon Distance(km) Time Diff (sec)
1 08/05/2023 15:19:42 -0.12, 158.03 0.41, 155.66 270.25 80
2 08/06/2023 03:40:33 -0.90, 152.97 -0.43, 155.11 244.72 80
3 08/08/2023 03:26:20 0.28, 156.37 -0.41, 153.16 365.48 80
4 08/08/2023 15:47:03 0.72, 151.34 0.43, 152.68 152.71 80
5 08/10/2023 15:32:49 -0.45, 154.75 0.41, 150.73 457.30 80
6 08/11/2023 03:53:41 -0.54, 149.69 -0.43, 150.19 57.86 80
7 08/13/2023 16:00:09 0.37, 148.07 0.42, 147.76 35.76 80
8 08/14/2023 04:21:01 -1.35, 143.00 -0.43, 147.22 480.15 80
9 08/16/2023 04:06:45 -0.19, 146.43 -0.42, 145.25 132.70 80
10 08/16/2023 16:27:27 1.17, 141.40 0.42, 144.76 383.66 80
11 08/18/2023 16:13:11 -0.03, 144.81 0.42, 142.79 229.97 80
